286 
ASUS46 KSEW 200110
RWRWA 

WASHINGTON REGIONAL WEATHER ROUNDUP
NATIONAL WEATHER SERVICE SEATTLE WA
600 PM PDT FRI SEP 19 2014

NOTE:"FAIR" INDICATES FEW OR NO CLOUDS BELOW 12,000 FEET WITH NO 
SIGNIFICANT WEATHER AND/OR OBSTRUCTIONS TO VISIBILITY.

WAZ505-507>509-200200-
SEATTLE, TACOMA, EVERETT, AND VICINITY
  
CITY           SKY/WX    TMP DP  RH WIND       PRES   REMARKS
EVERETT        SUNNY     70  54  56 VRB3      30.10R                  
BOEING FIELD   PTSUNNY   76  56  49 CALM      30.06S                  
RENTON         PTSUNNY   74  59  59 NW7       30.06R                  
SEATAC AIRPORT MOSUNNY   72  57  59 S6        30.08S                  
JBLM-MCCHORD   SUNNY     73  59  62 W9        30.07S                  
PUYALLUP       NOT AVBL                                               
JBLM-FT LEWIS  SUNNY     71  59  64 W9        30.07R                  
TACOMA NARROWS MOSUNNY   71  58  63 W7        30.07S                  
$$
 
WAZ001-503-506-510-514-515-200200-
NORTH INTERIOR
  
CITY           SKY/WX    TMP DP  RH WIND       PRES   REMARKS
BELLINGHAM     CLOUDY    68  60  75 CALM      30.10R                  
FRIDAY HARBOR  CLOUDY    67  58  72 CALM      30.11R                  
EASTSOUND      CLOUDY    66  59  77 CALM      30.08S                  
PORT ANGELES     N/A     64  57  78 NW3       30.12R                  
NAS WHIDBEY    PTSUNNY   71  59  65 NE5       30.10S                  
BURLINGTON     CLOUDY    70  61  73 N6        30.10F                  
$$
 
WAZ020-022-039-040-504-511-512-200200-
SOUTHWEST INTERIOR
  
CITY           SKY/WX    TMP DP  RH WIND       PRES   REMARKS
SHELTON        SUNNY     66  59  78 SW12      30.06S                  
OLYMPIA        MOSUNNY   72  58  61 NW9       30.07S                  
CHEHALIS       FAIR      75  61  60 VRB3G12   30.06S                  
KELSO          SUNNY     75  55  50 W7        30.07S                  
VANCOUVER      SUNNY     80  55  42 N5        30.01F                  
SCAPPOOSE, OR  SUNNY     79  54  41 N8        30.01F                  
PORTLAND, OR   MOSUNNY   80  57  45 VRB6      30.01F                  
$$
 
WAZ021-516-517-200200-
WASHINGTON COAST
  
CITY           SKY/WX    TMP DP  RH WIND       PRES   REMARKS
FORKS          MOSUNNY   66  57  72 NW5       30.11S                  
HOQUIAM        CLOUDY    64  61  90 SW9       30.09F                  
ASTORIA, OR    SUNNY     69  59  70 NW12      30.07F                  
$$
 
WAZ019-023-024-040-518-519-200200-
CASCADE MOUNTAINS AND COLUMBIA GORGE
  
CITY           SKY/WX    TMP DP  RH WIND       PRES   REMARKS
STAMPEDE PASS  NOT AVBL                                               
TROUTDALE, OR  SUNNY     82  53  36 CALM      29.99F                  
THE DALLES, OR SUNNY     84  53  34 NW16G25   29.94S                  
$$

WAZ026-027-041>044-520-521-200200-
EAST SLOPES
  
CITY           SKY/WX    TMP DP  RH WIND       PRES   REMARKS
OMAK           PTCLDY    81  46  29 S12       29.95S                  
WENATCHEE      SUNNY     82  48  30 NW14      29.97S                  
ELLENSBURG     SUNNY     76  52  43 NW21      30.01R                  
YAKIMA         MOSUNNY   83  50  31 SE3       29.97S                  
$$

WAZ028-034-035-200200-
COLUMBIA BASIN
  
CITY           SKY/WX    TMP DP  RH WIND       PRES   REMARKS
EPHRATA        CLEAR     82  47  29 S10       29.96F                  
MOSES LAKE     CLEAR     82  48  30 S13       29.97F                  
PASCO          CLEAR     84  48  28 CALM      29.95S                  
HERMISTON, OR  CLEAR     84  48  28 CALM      29.95F                  
$$

WAZ036>038-200200-
NORTHEAST WASHINGTON
  
CITY           SKY/WX    TMP DP  RH WIND       PRES   REMARKS
SPOKANE GEIGER MOCLDY    74  46  36 SW9       30.03S                  
SPOKANE FELTS  PTCLDY    76  45  33 SW9       30.03R                  
FAIRCHILD AFB  PTCLDY    74  47  38 SW8       30.04S                  
COEURDALENE,ID MOCLDY    73  45  35 S9        30.04R                  
DEER PARK      PTCLDY    75  47  36 S14       30.02S                  
$$

WAZ029>033-200200-
SOUTHEAST WASHINGTON
  
CITY           SKY/WX    TMP DP  RH WIND       PRES   REMARKS
PULLMAN        PTCLDY    73  44  35 CALM      30.08S                  
LEWISTON, ID   MOCLDY    80  47  31 N5        30.01S                  
WALLA WALLA    CLEAR     81  46  29 SW5       30.00F                  
PENDLETON, OR  CLEAR     81  45  28 W6        29.99F                  
$$